Torna al catalogo

COSMOS 970 DEB

AttivoLEO
NORAD 64995·DEBRIS·🇷🇺 Russia

Lanciato Dec 21, 1977 da Baikonur Cosmodrome

Loading…

Prossimi Passaggi (prossime 24 ore)

TLE

ObsoletoSource: Space-Track

Epoca: Aug 27, 2026, 19:39 UTC

1 64995U 77121DG  26239.81933813 -.00000048  00000-0  37827-4 0  9993
2 64995  65.8039  24.2172 0115254  11.7565 348.6139 13.59157953588369

Traccia COSMOS 970 DEB in tempo reale con AllMySat

Download on the App Store